Regional Weather Roundup
Issued by NWS

Home | Current Version | Previous Version | Graphics & Text | Print | Product List | Glossary On
Versions: 1 2 3 4 5 6 7 8 9 10 11 12 13 14 15 16 17 18 19 20 21 22 23 24 25 26 27 28 29 30 31 32 33 34 35 36 37 38 39 40 41 42 43 44 45 46 47 48 49 50
000
ASUS43 KDMX 181407
RWRIA

WEATHER ROUNDUP FOR IOWA
NATIONAL WEATHER SERVICE DES MOINES IA
800 AM CST THU DEC 18 2014

NOTE: "FAIR" INDICATES FEW OR NO CLOUDS BELOW 12,000 FEET WITH NO
SIGNIFICANT WEATHER AND/OR OBSTRUCTIONS TO VISIBILITY.

* - THESE STATIONS ARE NOT NWS STATIONS...THUS NOT UNDER NWS
QUALITY CONTROL.  THEY ALSO DO NOT REPORT WEATHER SUCH
AS PRECIPITATION OR FOG.

IAZ001>003-012>014-020>022-031>034-043>046-181500-
   NORTHWEST IOWA

CITY           SKY/WX    TMP DP  RH WIND       PRES   REMARKS
CARROLL *      CLOUDY    21  19  93 SE7       30.26S WCI  13
CHEROKEE *     CLOUDY    21  19  93 E5        30.26R WCI  15
DENISON *      CLOUDY    23  21  93 E6        30.23S WCI  16
LE MARS *      CLOUDY    23  21  93 SE6G13    30.25R WCI  16
ORANGE CITY *  CLOUDY    21  18  86 SE7       30.23S WCI  13
SHELDON *      CLOUDY    19  18  93 SE7       30.23S WCI  10
SIOUX CITY     CLOUDY    26  21  81 E6        30.24S WCI  19
SPENCER        CLOUDY    19  14  81 SE6       30.25F WCI  11
STORM LAKE *   MOCLDY    19  18  93 SE8       30.24S WCI   9
$$

IAZ055>058-069>071-079>083-090>094-181500-
   SOUTHWEST IOWA

CITY           SKY/WX    TMP DP  RH WIND       PRES   REMARKS
ATLANTIC *     CLOUDY    25  21  86 E5        30.25R WCI  19
AUDUBON *      CLEAR     23  18  80 E5        30.25R WCI  17
CLARINDA *     LGT SNOW  27  25  93 NE3       30.26S
COUNCIL BLFS * LGT SNOW  25  25 100 SE6       30.22S WCI  18
CRESTON *      LGT SNOW  23  23 100 E9        30.24S WCI  13
HARLAN  *      CLOUDY    25  23  93 E5        30.28R WCI  19
LAMONI         LGT SNOW  24  22  91 E5        30.25S FOG     WCI  18
RED OAK *      LGT SNOW  25  25 100 E6        30.25S WCI  18
SHENANDOAH *   LGT SNOW  27  27 100 E7        30.25S WCI  19
$$

IAZ047>049-059>061-072>074-084-181500-
   CENTRAL IOWA

CITY           SKY/WX    TMP DP  RH WIND       PRES   REMARKS
AMES           CLOUDY    20  15  81 E5        30.28S WCI  13
ANKENY *       CLOUDY    21  18  86 CALM      30.29S
CHARITON *     LGT SNOW  23  21  93 NE6       30.27S VSB 3/4 WCI  16
DES MOINES     CLOUDY    23  16  74 E5        30.29S WCI  17
GRINNELL*      CLOUDY    19  18  93 NE5       30.28S WCI  13
KNOXVILLE *    CLOUDY    23  18  80 SE3       30.27S
MARSHALLTOWN   CLOUDY    17  14  88 NE3       30.28F
PELLA *        CLOUDY    23  19  86 CALM      30.31R
PERRY *        CLOUDY    23  19  86 E5        30.28S WCI  17
$$

IAZ004>006-015-016-023>025-035-036-181500-
   NORTH CENTRAL IOWA

CITY           SKY/WX    TMP DP  RH WIND       PRES   REMARKS
ALGONA *       CLOUDY    18  16  93 SE5       30.28S WCI  11
CLARION *      PTCLDY    18  16  93 SE3       30.28F
ESTHERVILLE    CLOUDY    16  13  88 SE7       30.26S WCI   6
FORT DODGE *   CLOUDY    19  16  86 E6        30.28S WCI  11
MASON CITY     CLOUDY    18  14  84 S5        30.30R WCI  11
FOREST CITY *  CLOUDY    18  14  86 SE3       30.28R
IOWA FALLS *   CLOUDY    18  14  86 CALM      30.29S
$$

IAZ007>011-017>019-026>030-037>042-050>054-066-181500-
   NORTHEAST IOWA

CITY           SKY/WX    TMP DP  RH WIND       PRES   REMARKS
CEDAR RAPIDS   MOCLDY    15  12  88 NW6       30.29S WCI   6
CHARLES CITY * FLURRIES  18  16  93 SW3       30.30R
CLINTON *      MOCLDY    16  12  86 CALM      30.33S
DECORAH *      CLEAR     14  10  85 CALM      30.27R
DUBUQUE        PTCLDY    14  12  92 CALM      30.28R
MONTICELLO *   CLEAR     14  14 100 CALM      30.30S
OELWEIN *      CLEAR     12   9  85 W3        30.30R
WATERLOO         N/A     11   9  92 CALM      30.31S
$$

IAZ064-065-067-068-078-181500-
   EAST CENTRAL IOWA

CITY           SKY/WX    TMP DP  RH WIND       PRES   REMARKS
DAVENPORT      CLOUDY    18  14  84 CALM      30.31S
IOWA CITY      MOCLDY    20  16  84 NE3       30.32S
MT. PLEASANT * LGT SNOW  23  19  86 CALM      30.30S
MUSCATINE *    CLOUDY    23  18  80 CALM      30.32S
QUAD CITIES    CLOUDY    22  17  81 CALM      30.31S
$$

IAZ062-063-075>077-085>089-095>099-181500-
   SOUTHEAST IOWA

CITY           SKY/WX    TMP DP  RH WIND       PRES   REMARKS
BURLINGTON     CLOUDY    24  19  81 CALM      30.29F
FAIRFIELD *    MIX PCPN  23  18  80 CALM      30.30R
FORT MADISON * CLOUDY    25  21  86 CALM      30.30F
KEOKUK *       CLOUDY    25  21  86 CALM      30.30R
OSKALOOSA *    CLOUDY    21  18  86 CALM      30.30R
CENTERVILLE *  FLURRIES  23  23 100 E3        30.28S
OTTUMWA        LGT SNOW  22  17  81 SE3       30.29R
WASHINGTON *   CLOUDY    21  21 100 CALM      30.30S
$$

ABBREVIATIONS USED IN REMARKS
   TC - TEMPERATURES IN CELSIUS
  WCI - WIND CHILL INDEX
   HX - HEAT INDEX
  VSB - VISIBILITY
$$




USA.gov is the U.S. government's official web portal to all federal, state and local government web resources and services.